Other Public Products
Issued by NWS Grand Forks, ND

Home | Current Version | Previous Version | Graphics & Text | Print | Product List | Glossary On
Versions: 1 2 3 4 5 6 7 8 9 10 11 12 13 14 15 16 17 18 19 20 21 22 23 24 25 26 27 28 29 30 31 32 33 34 35 36 37 38 39 40 41 42 43 44 45 46 47 48 49 50
000
FPUS83 KFGF 060031
OPUFGF
PRAIRIE TO PINES WEATHER ROUNDUP
NATIONAL WEATHER SERVICE EASTERN NORTH DAKOTA/GRAND FORKS ND
700 PM CDT SUN JUL 05 2015

 **SATELLITE DATA USED TO AUGMENT SKY COVER AT AUTOMATED STATIONS**
 *****  WEATHER ACROSS EASTERN NORTH DAKOTA  *****

CITY           SKY/WX    TMP DP  RH WIND       PRES   REMARKS
GRAND FORKS    PTSUNNY   75  66  73 N9        29.81R
6HR MIN TEMP:  67; 6HR MAX TEMP:  77; 6HR PCP:  0.13;

GRAND FORKS AF SUNNY     73  65  77 N9        29.83R
GRAND CITY NWS   N/A     72 N/A N/A N14         N/A
BUXTON         NOT AVBL
DEVILS LAKE    PTSUNNY   72  59  64 N13       29.87S
6HR MIN TEMP:  70; 6HR MAX TEMP:  75;

FARGO          MOSUNNY   77  65  66 NW21      29.81R
6HR MIN TEMP:  77; 6HR MAX TEMP:  85;

WAHPETON ARPT  MOCLDY    81  68  65 NW13      29.77R
$$

 *****  WEATHER ACROSS CENTRAL AND WESTERN NORTH DAKOTA  *****

CITY           SKY/WX    TMP DP  RH WIND       PRES   REMARKS
JAMESTOWN      LGT RAIN  71  66  84 NW5       29.86S
6HR MIN TEMP:  70; 6HR MAX TEMP:  78; 6HR PCP: TRACE;

BISMARCK       CLOUDY    72  60  66 NW6       29.93R
6HR MIN TEMP:  72; 6HR MAX TEMP:  79;

MINOT          CLOUDY    72  56  57 NW8       29.92S HAZE
6HR MIN TEMP:  71; 6HR MAX TEMP:  76;

MINOT AFB      CLOUDY    73  63  68 N18G25    29.92S HAZE
6HR MIN TEMP:  73; 6HR MAX TEMP:  78;

GARRISON         N/A     70  61  73 N10       29.94R
6HR MIN TEMP:  70; 6HR MAX TEMP:  78;

WILLISTON      CLOUDY    73  46  38 N14       30.02R
6HR MIN TEMP:  73; 6HR MAX TEMP:  77;

DICKINSON      CLOUDY    67  57  70 NW7       29.99S HAZE
6HR MIN TEMP:  66; 6HR MAX TEMP:  73; 6HR PCP:  0.01;

HETTINGER      CLOUDY    66  56  70 N10       30.03R HAZE
6HR MIN TEMP:  66; 6HR MAX TEMP:  79;

$$

 *****  OTHER OBSERVATIONS NORTHEAST NORTH DAKOTA  *****

CITY           SKY/WX    TMP DP  RH WIND       PRES   REMARKS
WALHALLA       FAIR      68  63  83 MISG      29.86R HAZE
LANGDON        FAIR      68  61  77 NW10      29.89R HAZE
CAVALIER       FAIR      70  59  68 NW6       29.85R HAZE
GRAFTON        FAIR      70  63  78 NW8       29.85R HAZE
CANDO          FAIR      68  59  73 N7        29.91R HAZE
FORT TOTTEN      N/A     71  62  73 N5        29.95S
ROLLA          FAIR      68  57  68 NW12      29.92R HAZE
RUGBY          NOT AVBL
 ***** THE ABOVE OBSERVATIONS ARE NON NWS ARE NOT QUALITY
        CONTROLLED AND MAY MIS-REPORT RAIN FOR SNOW...
$$

 *****  OTHER OBSERVATIONS SOUTHEAST NORTH DAKOTA *****

CITY           SKY/WX    TMP DP  RH WIND       PRES   REMARKS
COOPERSTOWN    NOT AVBL
VALLEY CITY    LGT RAIN  72  72 100 N8        29.85F
OAKES            N/A     77  70  78 N20G26    29.82R
GWINNER        FAIR      79  66  65 N17G25    29.83R
SHEYENNE NWR     N/A     82  70  66 NW12      29.95
BUFFALO        NOT AVBL
WYNDMERE         N/A     84  72  65 NW10        N/A
 ***** THE ABOVE OBSERVATIONS ARE NON NWS ARE NOT QUALITY
       CONTROLLED AND MAY MIS-REPORT RAIN FOR SNOW...
$$

  *****  WEATHER ACROSS NORTHERN MINNESOTA  *****

CITY           SKY/WX    TMP DP  RH WIND       PRES   REMARKS
FLAG ISLAND    CLOUDY    70  64  83 NW12      29.79R
WARROAD        PTSUNNY   72  66  83 NW8G17    29.80R
ROSEAU         MOSUNNY   72  64  78 NW9       29.81R
HALLOCK        MOSUNNY   70  64  83 NW9       29.83R HAZE
THF RVR FALLS  PTSUNNY   73  64  73 NW14      29.82R
6HR MIN TEMP:  66; 6HR MAX TEMP:  73; 6HR PCP:  0.15;

HALSTAD        NOT AVBL
FOSSTON        MOSUNNY   73  64  73 NW10      29.82R
BAUDETTE       PTSUNNY   72  65  78 NW12      29.77S
6HR MIN TEMP:  69; 6HR MAX TEMP:  74; 6HR PCP:  0.11;

WASKISH        PTSUNNY   73  66  78 W8        29.79R
CROOKSTON      SUNNY     73  66  78 N10       29.83R
$$
  *****  WEATHER ACROSS CENTRAL AND WEST MINNESOTA  *****

CITY           SKY/WX    TMP DP  RH WIND       PRES   REMARKS
BEMIDJI        CLOUDY    68  66  94 CALM      29.79R
PARK RAPIDS    PTSUNNY   84  67  56 SW13      29.77S
6HR MIN TEMP:  83; 6HR MAX TEMP:  87;

WADENA         PTSUNNY   82  70  65 S5        29.77R
DETROIT LAKES  PTSUNNY   79  70  73 NW18G25   29.80R
MOORHEAD       MOSUNNY   75  68  78 N14G24    29.81R
FERGUS FALLS   SUNNY     82  70  65 NW8       29.75R
ELBOW LAKE     FAIR      84  73  69 NW8       29.76R
MORRIS MN      MOSUNNY   84  72  65 S8        29.74S
STAPLES        CLOUDY    82  66  57 S7        29.78R
WHEATON        MOSUNNY   82  70  65 NW9       29.77S
$$
  *****  WEATHER ELSEWHERE ACROSS MINNESOTA  *****

CITY           SKY/WX    TMP DP  RH WIND       PRES   REMARKS
DULUTH         PTSUNNY   80  68  66 S15G23    29.78F
6HR MIN TEMP:  80; 6HR MAX TEMP:  83;

INTRNTL FALLS  CLOUDY    73  62  68 W12G21    29.76R
6HR MIN TEMP:  71; 6HR MAX TEMP:  80; 6HR PCP: TRACE;

ELY            CLOUDY    79  64  61 S13G18    29.74F
CLOQUET        PTSUNNY   81  66  61 S14G20    29.79S
BRAINERD       CLOUDY    82  69  64 S12       29.77S
6HR MIN TEMP:  82; 6HR MAX TEMP:  87;

HIBBING        PTSUNNY   80  66  62 S6        29.76S
6HR MIN TEMP:  80; 6HR MAX TEMP:  83;

ALEXANDRIA     PTSUNNY   84  70  62 S13       29.78S
6HR MIN TEMP:  82; 6HR MAX TEMP:  86;

SAINT CLOUD    MOSUNNY   84  71  65 S12G24    29.77F
6HR MIN TEMP:  81; 6HR MAX TEMP:  88;

MINNEAPOLIS    PTSUNNY   85  69  58 S20       29.82F
6HR MIN TEMP:  82; 6HR MAX TEMP:  88;

$$

  *****  WEATHER ACROSS SOUTH DAKOTA  *****

CITY           SKY/WX    TMP DP  RH WIND       PRES   REMARKS
SIOUX FALLS    PTSUNNY   84  72  67 S17       29.77F
6HR MIN TEMP:  84; 6HR MAX TEMP:  90;

BROOKINGS      MOSUNNY   82  72  69 S15G23    29.79S
WATERTOWN      MOSUNNY   83  70  64 S8        29.76F
6HR MIN TEMP:  85; 6HR MAX TEMP:  88;

HURON          PTSUNNY   87  73  62 S8        29.72S HX  94
6HR MIN TEMP:  86; 6HR MAX TEMP:  90;

SISSETON         N/A     85  72  65 N12       29.74S HX  91
ABERDEEN       MOSUNNY   82  69  64 N17G25    29.77S
6HR MIN TEMP:  82; 6HR MAX TEMP:  91;

MITCHELL       MOSUNNY   87  74  64 S7        29.75R HX  95
PIERRE         CLOUDY    80  67  64 N32G38    29.78R
6HR MIN TEMP:  79; 6HR MAX TEMP:  87;

MOBRIDGE       LGT RAIN  72  69  90 N16       29.87R
RAPID CITY     HVY RAIN  65  63  93 N22G29    29.98R FOG
6HR MIN TEMP:  65; 6HR MAX TEMP:  80; 6HR PCP:  0.01;

$$

  *****  SOME WEATHER IN NEARBY STATES *****

CITY           SKY/WX    TMP DP  RH WIND       PRES   REMARKS
GLASGOW MT     PTSUNNY   69  47  45 W12       30.08S
6HR MIN TEMP:  67; 6HR MAX TEMP:  72; 6HR PCP: TRACE;

GREAT FALLS MT CLOUDY    53  50  89 N5        30.21R
6HR MIN TEMP:  51; 6HR MAX TEMP:  53; 6HR PCP:  0.12;

CHEYENNE WY    LGT RAIN  65  55  70 W16G25    30.09R
6HR MIN TEMP:  63; 6HR MAX TEMP:  89; 6HR PCP:  0.39;

SCOTTSBLUFF NE LGT RAIN  65  64  97 NW15      29.93F
6HR MIN TEMP:  63; 6HR MAX TEMP:  96; 6HR PCP:  1.00;

OMAHA NE       PTSUNNY   89  74  60 SE21G28   29.80F HX  98
6HR MIN TEMP:  80; 6HR MAX TEMP:  91;

DES MOINES IA  MOSUNNY   85  68  56 SE17G25   29.89F
6HR MIN TEMP:  82; 6HR MAX TEMP:  89;

DAVENPORT IA   PTSUNNY   79  65  62 SE14      29.99F
6HR MIN TEMP:  79; 6HR MAX TEMP:  82;

CHICAGO IL     MOSUNNY   79  62  56 S8        30.02S
6HR MIN TEMP:  79; 6HR MAX TEMP:  83;

EAU CLAIRE WI  PTSUNNY   80  65  59 S12G24    29.88F
6HR MIN TEMP:  80; 6HR MAX TEMP:  85;

LA CROSSE WI   MOSUNNY   81  65  58 S15       29.91F
6HR MIN TEMP:  81; 6HR MAX TEMP:  85;

$$

  *****  SOME NATIONAL WEATHER *****

CITY           SKY/WX    TMP DP  RH WIND       PRES   REMARKS
LA GUARDIA NY  MOCLDY    77  62  59 VRB7      30.10S



USA.gov is the U.S. government's official web portal to all federal, state and local government web resources and services.